Regional Weather Roundup
Issued by NWS

Home | Current Version | Previous Version | Text Only | Print | Product List | Glossary On
Versions: 1 2 3 4 5 6 7 8 9 10 11 12 13 14 15 16 17 18 19 20 21 22 23 24 25 26 27 28 29 30 31 32 33 34 35 36 37 38 39 40 41 42 43 44 45 46 47 48 49 50
000
ASUS43 KMPX 302310
RWRMN
WEATHER ROUNDUP FOR MINNESOTA
NATIONAL WEATHER SERVICE TWIN CITIES/CHANHASSEN MN
500 PM CST FRI JAN 30 2015


NOTE: "FAIR" INDICATES FEW OR NO CLOUDS BELOW 12,000 FEET WITH NO
SIGNIFICANT WEATHER AND/OR OBSTRUCTIONS TO VISIBILITY. N/A MEANS
CURRENT SKY AND/OR WEATHER CONDITIONS ARE NOT AVAILABLE.

MNZ060>063-068>070-310000-
   Twin Cities Metro

CITY           SKY/WX    TMP DP  RH WIND       PRES   REMARKS
TWIN CITIES    PTCLDY    27  15  61 S8        30.28F WCI  19
ST PAUL        CLEAR     26  15  63 S10       30.30F WCI  16
CRYSTAL        CLEAR     27  15  61 S10       30.26F WCI  17
BLAINE         PTCLDY    28  16  59 S13       30.26F WCI  18
LAKEVILLE      CLEAR     25  18  74 S8        30.28F WCI  16
EDEN PRAIRIE   CLEAR     27  17  66 S12       30.26F WCI  17
SOUTH ST PAUL  CLEAR     28  17  63 S6        30.29F WCI  21
LAKE ELMO      FAIR      27  18  69 S8        30.29F WCI  18
$$
MNZ001>005-007-008-013>017-022>024-027-028-310000-
   Northwest Minnesota

CITY           SKY/WX    TMP DP  RH WIND       PRES   REMARKS
BEMIDJI        CLOUDY    20  13  74 S5        30.13F WCI  14
HALLOCK        CLOUDY    25  19  80 S7        30.12S WCI  17
ROSEAU         CLOUDY    21  16  79 S6        30.12F WCI  14
WARROAD        CLOUDY    19  14  79 SW7       30.13S WCI  10
THIEF RVR FALL MOCLDY    25  19  80 S8        30.11F WCI  16
CROOKSTON      CLEAR     28  21  74 S10       30.12F WCI  19
FOSSTON        CLOUDY    21  18  86 S14       30.12F WCI   8
DETROIT LAKES  CLOUDY    27  21  80 S10       30.15F WCI  17
MOORHEAD       CLEAR     30  28  93 S13       30.14F WCI  20
PARK RAPIDS    CLOUDY    24  15  68 S8        30.14S WCI  15
MAHNOMEN       CLOUDY    25  19  80 S13       30.12F WCI  13
$$
MNZ006-009>011-018-025>026-310000-
   North Central Minnesota

CITY           SKY/WX    TMP DP  RH WIND       PRES   REMARKS
BAUDETTE       CLOUDY    16   8  71 S6        30.12S WCI   7
FLAG ISLAND    CLOUDY    12   9  85 SE9       30.12F WCI   0
INTL FALLS     CLOUDY    11   6  81 SE10      30.13F WCI  -3
WASKISH        CLOUDY    18  10  73 S9        30.15S WCI   6
BIG FORK       PTCLDY    18   7  62 S7        30.14S WCI   8
LONGVILLE      CLOUDY    21  10  63 S7        30.16S WCI  13
GRAND RAPIDS   CLOUDY    18   7  62 S12       30.15F WCI   5
CRANE LAKE     LGT SNOW  10   7  85 SE5       30.19F WCI   2
ORR            CLOUDY    10   5  79 SE6       30.13F WCI   1
COOK           FLURRIES  12   5  73 SE6       30.16F WCI   3
WALKER         CLOUDY    21  11  66 S3        30.14F
$$
MNZ012-019>021-037-310000-
   Northeast Minnesota

CITY           SKY/WX    TMP DP  RH WIND       PRES   REMARKS
DULUTH         MOCLDY    15   3  59 S9        30.20F WCI   3
ELY            LGT SNOW  12   9  85 S5        30.17F WCI   4
HIBBING        CLOUDY    17   3  54 S9        30.16F WCI   6
EVELETH        PTCLDY    18   5  57 S10       30.19F WCI   6
DULUTH HARBOR  MOCLDY    18   7  62 S9        30.29F WCI   6
TWO HARBORS    CLOUDY    18   7  62 CALM      30.23F
SILVER BAY     CLOUDY    16   7  67 S7        30.23F WCI   6
GRAND MARAIS     N/A     15   4  61 NW3       30.29F
G MARAIS ARPRT CLOUDY     9  -2  61 S3        30.18F
$$
MNZ029>031-032-039>041-046>048-054>057-064-310000-
   West Central Minnesota

CITY           SKY/WX    TMP DP  RH WIND       PRES   REMARKS
FERGUS FALLS   CLEAR     27  19  74 S9        30.18R WCI  17
WHEATON        CLEAR     34  28  80 S8        30.15S WCI  27
MORRIS         CLEAR     30  27  86 S13       30.14F WCI  20
ALEXANDRIA     CLOUDY    24  19  81 S14       30.16F WCI  12
ELBOW LAKE     FAIR      27  23  85 S12       30.14F WCI  17
WADENA         MOCLDY    21  16  79 S7        30.16R WCI  13
GLENWOOD       CLOUDY    25  21  86 S14       30.17F WCI  13
APPLETON       CLEAR     36  28  75 S10       30.16F
BENSON         CLEAR     30  25  80 S10       30.17F WCI  21
ORTONVILLE     CLEAR     37  27  65 S7        30.15S
MADISON        CLEAR     39  30  70 SW13      30.17F
WILLMAR        FAIR      28  21  74 S6        30.21S WCI  22
$$
MNZ033>034-036-042>043-049>051-058-059-310000-
   Central Minnesota

CITY           SKY/WX    TMP DP  RH WIND       PRES   REMARKS
ST CLOUD       MOCLDY    25  16  68 S13       30.21F WCI  14
SAUK CENTRE    FAIR      24  19  80 S13       30.18F WCI  12
PAYNESVILLE    CLEAR     23  19  84 SE12G17   30.20F WCI  12
AITKIN         CLOUDY    25  12  58 SE9G17    30.16F WCI  15
PINE RIVER     CLOUDY    21  12  68 S8        30.20R WCI  12
BRAINERD       CLOUDY    23  12  62 S10G18    30.17F WCI  12
STAPLES        CLOUDY    23  14  68 S12       30.16F WCI  12
LONG PRAIRIE   MOCLDY    23  19  86 S10G18    30.18S WCI  12
LITTLE FALLS   PTCLDY    27  14  59 SE8       30.19F WCI  18
LITCHFIELD     CLEAR     28  21  74 S5        30.21F WCI  23
BUFFALO        CLEAR     26  17  68 SE7       30.25F WCI  18
MAPLE LAKE     CLEAR     27  20  76 S8G16     30.23F WCI  19
$$
MNZ037-044-045-052-053-310000-
   East Central Minnesota

CITY           SKY/WX    TMP DP  RH WIND       PRES   REMARKS
PRINCETON      CLOUDY    27  16  63 S10       30.23F WCI  17
MORA           CLOUDY    23  10  58 S9        30.25F WCI  13
CAMBRIDGE      MOCLDY    25  12  58 SE7       30.23F WCI  17
RUSH CITY      MOCLDY    22  11  62 S10       30.26F WCI  11
MOOSE LAKE     CLOUDY    19   9  63 S3        30.21F
HINCKLEY       CLOUDY    21  10  63 SE7       30.25F WCI  13
CLOQUET        CLOUDY    16   3  57 S3        30.21F
MCGREGOR       CLOUDY    21  10  63 S10       30.19F WCI  10
$$
MNZ071>073-080-081-089-090-097-098-310000-
   Southwest Minnesota

CITY           SKY/WX    TMP DP  RH WIND       PRES   REMARKS
MONTEVIDEO     CLEAR     34  28  80 SW8       30.20S WCI  27
GRANITE FALLS  CLEAR     33  28  81 S12       30.21S WCI  24
CANBY          CLEAR     36  28  74 S6        30.18S
MARSHALL       CLEAR     34  25  69 SW14G26   30.20R WCI  24
REDWOOD FALLS  CLEAR     32  25  75 S15       30.20F WCI  22
OLIVIA         CLEAR     30  25  80 S9        30.19F WCI  22
PIPESTONE      CLEAR     34  28  80 SW15      30.18S WCI  24
WINDOM         CLEAR     32  27  80 S12G17    30.22F WCI  23
WORTHINGTON    CLEAR     32  25  74 S17G24    30.22F WCI  21
JACKSON        CLEAR     32  27  80 S15G21    30.24F WCI  22
TRACY          CLEAR     34  28  79 S22       30.17F WCI  22
SLAYTON        CLEAR     32  27  81 S15       30.20F WCI  22
$$
MNZ065>067-074>077-082>085-091>093-310000-
   South Central Minnesota

CITY           SKY/WX    TMP DP  RH WIND       PRES   REMARKS
MANKATO        CLEAR     28  19  69 S15       30.27F WCI  17
NEW ULM        CLEAR     30  21  69 S15       30.24F WCI  19
ST JAMES       CLEAR     32  25  74 S15       30.26F WCI  22
FAIRMONT       PTCLDY    30  21  69 S14       30.25F WCI  20
GLENCOE        CLEAR     30  23  75 S8G16     30.24F WCI  22
FARIBAULT      CLEAR     28  19  69 S7        30.29F WCI  21
OWATONNA       PTCLDY    28  18  64 S13       30.29F WCI  18
WASECA         CLEAR     30  23  74 S13       30.29F WCI  20
ALBERT LEA     CLEAR     28  19  69 S7        30.30F WCI  21
$$
MNZ078>079-086>088-094>096-310000-
   Southeast Minnesota

CITY           SKY/WX    TMP DP  RH WIND       PRES   REMARKS
ROCHESTER      CLEAR     22  13  68 S10       30.31F WCI  11
RED WING       CLEAR     25  12  58 S5        30.31F WCI  19
STANTON        CLEAR     28  19  66 S9        30.29F WCI  20
DODGE CENTER   CLEAR     25  18  74 S13       30.29F WCI  13
WINONA         CLEAR     27  10  50 SW3       30.37F
AUSTIN         CLEAR     27  18  69 S13       30.31F WCI  16
PRESTON        CLEAR     23  11  61 S8        30.33F WCI  14
$$
ABBREVIATIONS USED IN REMARKS
   TC - TEMPERATURES IN CELSIUS
  WCI - WIND CHILL INDEX
   HX - HEAT INDEX
  VSB - VISIBILITY
$$



USA.gov is the U.S. government's official web portal to all federal, state and local government web resources and services.